Weather History for Zanesville, OH

Change the Weather History Date:

Monday, December 16, 2013

  Actual Average Record
Temperature  
Mean Temperature 25 °F 32 °F  
Max Temperature 29 °F 40 °F 64 °F (1984)
Min Temperature 21 °F 24 °F -10 °F (1951)
Degree Days  
Heating Degree Days 40 33  
Month to date heating degree days 531 488  
Since 1 July heating degree days 1707 1629  
Cooling Degree Days 0 0  
Month to date cooling degree days 0 0  
Year to date cooling degree days 856 768  
Moisture  
Dew Point 19 °F    
Average Humidity 76    
Maximum Humidity 92    
Minimum Humidity 60    
Precipitation  
Precipitation T in 0.08 in 1.68 in (2000)
Month to date precipitation 2.35 1.37  
Year to date precipitation 37.11 36.65  
Sea Level Pressure  
Sea Level Pressure 30.10 in    
Wind  
Wind Speed 3 mph (NNE)    
Max Wind Speed 13 mph    
Max Gust Speed 18 mph    
Visibility 3 miles    
Events Snow    
T = Trace of Precipitation, MM = Missing Value Source: NWS Daily Summary

Daily Weather History Graph

Daily Weather History Graph

Search for Another Location

Airport:

Trip Planner

Search our weather history database for the weather conditions in past years. The results will help you decide how hot, cold, wet, or windy it might be!

Date:

Astronomy

Dec. 16, 2013 Rise Set
Actual Time 7:42 AM EST 5:03 PM EST
Civil Twilight 7:12 AM EST 5:34 PM EST
Nautical Twilight 6:38 AM EST 6:08 PM EST
Astronomical Twilight 6:05 AM EST 6:41 PM EST
Moon 4:53 PM EST (12/16) 6:50 AM EST (12/16)
Length of Visible Light 10h 21m
Length of Day
9h 20m
Full, 100% of the Moon is Illuminated
Dec 16
Full
Dec 17
Full
Dec 25
Last Quarter
Jan 1
New
Jan 7
First Quarter

Hourly Weather History & Observations

Time (EST) Temp. Windchill Dew Point Humidity Pressure Visibility Wind Dir Wind Speed Gust Speed Precip Events Conditions
12:53 AM 24.1 °F 16.0 °F 12.0 °F 60% 30.09 in 10.0 mi West 6.9 mph - N/A   Overcast
1:53 AM 24.1 °F 16.0 °F 12.9 °F 62% 30.11 in 10.0 mi West 6.9 mph - N/A   Overcast
2:35 AM 24.8 °F 16.1 °F 14.0 °F 64% 30.07 in 9.0 mi West 8.1 mph - N/A   Overcast
2:53 AM 24.1 °F 17.0 °F 15.1 °F 69% 30.12 in 8.0 mi West 5.8 mph - N/A   Overcast
3:53 AM 24.1 °F 15.2 °F 16.0 °F 71% 30.12 in 2.5 mi WNW 8.1 mph - 0.00 in Snow Light Snow
4:20 AM 23.0 °F 14.7 °F 17.6 °F 80% 30.08 in 3.0 mi West 6.9 mph - 0.00 in Snow Light Snow
4:30 AM 23.0 °F 17.0 °F 17.6 °F 80% 30.08 in 2.5 mi WNW 4.6 mph - 0.00 in Snow Light Snow
4:45 AM 23.0 °F 15.8 °F 17.6 °F 80% 30.09 in 1.5 mi WNW 5.8 mph - 0.00 in Snow Light Snow
4:53 AM 23.0 °F 17.0 °F 17.1 °F 78% 30.12 in 1.5 mi West 4.6 mph - 0.00 in Snow Light Snow
5:04 AM 23.0 °F 17.0 °F 17.6 °F 80% 30.09 in 1.0 mi WNW 4.6 mph - 0.00 in Snow Light Snow
5:12 AM 21.2 °F 14.9 °F 17.6 °F 86% 30.09 in 1.5 mi NW 4.6 mph - 0.00 in Snow Light Snow
5:32 AM 21.2 °F 14.9 °F 17.6 °F 86% 30.10 in 1.0 mi WNW 4.6 mph - 0.00 in Snow Light Snow
5:53 AM 21.9 °F 17.2 °F 18.0 °F 85% 30.14 in 1.2 mi NW 3.5 mph - 0.00 in Snow Light Snow
6:04 AM 21.2 °F 14.9 °F 17.6 °F 86% 30.10 in 1.8 mi WNW 4.6 mph - 0.00 in Snow Light Snow
6:18 AM 21.2 °F 16.4 °F 17.6 °F 86% 30.11 in 1.2 mi WNW 3.5 mph - 0.00 in Snow Light Snow
6:53 AM 21.9 °F - 18.0 °F 85% 30.14 in 1.0 mi Calm Calm - 0.00 in Snow Light Snow
7:00 AM 21.2 °F - 19.4 °F 93% 30.11 in 1.0 mi Calm Calm - 0.00 in Snow Light Snow
7:31 AM 21.2 °F 16.4 °F 19.4 °F 93% 30.11 in 0.8 mi North 3.5 mph - 0.00 in Snow Light Snow
7:39 AM 21.2 °F 16.4 °F 17.6 °F 86% 30.12 in 1.2 mi NNW 3.5 mph - 0.00 in Snow Light Snow
7:48 AM 21.2 °F 16.4 °F 17.6 °F 86% 30.12 in 1.5 mi NNW 3.5 mph - 0.00 in Snow Light Snow
7:53 AM 21.9 °F - 18.0 °F 85% 30.16 in 1.8 mi Calm Calm - 0.00 in Snow Light Snow
8:00 AM 21.2 °F 16.4 °F 17.6 °F 86% 30.12 in 2.0 mi North 3.5 mph - 0.00 in Snow Light Snow
8:09 AM 21.2 °F 13.6 °F 17.6 °F 86% 30.13 in 1.5 mi North 5.8 mph - 0.00 in Snow Light Snow
8:24 AM 21.2 °F 14.9 °F 17.6 °F 86% 30.13 in 2.0 mi North 4.6 mph - 0.00 in   Overcast
8:53 AM 21.0 °F 14.6 °F 16.0 °F 81% 30.18 in 1.8 mi NNE 4.6 mph - 0.00 in Snow Light Snow
8:58 AM 21.2 °F 16.4 °F 15.8 °F 80% 30.14 in 1.2 mi North 3.5 mph - 0.00 in Snow Light Snow
9:10 AM 21.2 °F 16.4 °F 15.8 °F 80% 30.14 in 0.8 mi North 3.5 mph - 0.00 in Snow Light Snow
9:50 AM 21.2 °F 16.4 °F 15.8 °F 80% 30.16 in 1.0 mi North 3.5 mph - 0.00 in Snow Light Snow
9:53 AM 21.9 °F 17.2 °F 16.0 °F 78% 30.19 in 1.0 mi Variable 3.5 mph - 0.00 in Snow Light Snow
10:46 AM 23.0 °F - 17.6 °F 80% 30.16 in 1.2 mi Calm Calm - 0.00 in Snow Light Snow
10:53 AM 23.0 °F - 17.1 °F 78% 30.19 in 1.2 mi Calm Calm - 0.00 in Snow Light Snow
10:58 AM 23.0 °F 18.4 °F 17.6 °F 80% 30.16 in 1.5 mi NE 3.5 mph - 0.00 in Snow Light Snow
11:06 AM 23.0 °F - 17.6 °F 80% 30.15 in 2.0 mi Calm Calm - 0.00 in Snow Light Snow
11:21 AM 23.0 °F 17.0 °F 17.6 °F 80% 30.15 in 3.0 mi NNE 4.6 mph - 0.00 in   Haze
11:53 AM 23.0 °F 18.4 °F 16.0 °F 74% 30.17 in 5.0 mi NE 3.5 mph - 0.00 in   Haze
12:53 PM 25.0 °F 20.7 °F 17.1 °F 72% 30.14 in 5.0 mi NE 3.5 mph - N/A   Haze
1:53 PM 25.0 °F - 17.1 °F 72% 30.12 in 5.0 mi Calm Calm - N/A   Haze
2:51 PM 24.8 °F 17.9 °F 17.6 °F 74% 30.06 in 5.0 mi East 5.8 mph - N/A   Haze
2:53 PM 25.0 °F 18.1 °F 18.0 °F 75% 30.10 in 5.0 mi East 5.8 mph - N/A   Haze
3:53 PM 26.1 °F 21.9 °F 18.0 °F 71% 30.12 in 4.0 mi ENE 3.5 mph - N/A   Haze
4:18 PM 24.8 °F 20.5 °F 19.4 °F 80% 30.08 in 2.0 mi ENE 3.5 mph - N/A   Haze
4:41 PM 24.8 °F 20.5 °F 19.4 °F 80% 30.09 in 1.8 mi ENE 3.5 mph - N/A   Haze
4:53 PM 25.0 °F 20.7 °F 19.9 °F 81% 30.12 in 1.5 mi ENE 3.5 mph - N/A   Haze
5:04 PM 24.8 °F 20.5 °F 21.2 °F 86% 30.09 in 2.5 mi East 3.5 mph - N/A   Overcast
5:23 PM 24.8 °F 20.5 °F 21.2 °F 86% 30.09 in 3.0 mi East 3.5 mph - N/A   Overcast
5:38 PM 24.8 °F 20.5 °F 21.2 °F 86% 30.08 in 2.5 mi ESE 3.5 mph - N/A   Overcast
5:53 PM 25.0 °F 19.3 °F 21.0 °F 85% 30.12 in 2.5 mi ESE 4.6 mph - N/A   Overcast
6:53 PM 25.0 °F 19.3 °F 21.9 °F 88% 30.11 in 2.5 mi ESE 4.6 mph - N/A   Overcast
7:00 PM 24.8 °F 20.5 °F 21.2 °F 86% 30.08 in 2.5 mi ESE 3.5 mph - N/A   Overcast
7:19 PM 24.8 °F 19.1 °F 21.2 °F 86% 30.06 in 3.0 mi ESE 4.6 mph - N/A   Overcast
7:32 PM 24.8 °F 20.5 °F 21.2 °F 86% 30.06 in 3.0 mi SE 3.5 mph - N/A   Overcast
7:53 PM 25.0 °F 20.7 °F 23.0 °F 92% 30.10 in 3.0 mi SSE 3.5 mph - N/A   Overcast
8:26 PM 24.8 °F - 23.0 °F 93% 30.06 in 2.5 mi Calm Calm - N/A   Overcast
8:53 PM 26.1 °F - 23.0 °F 88% 30.08 in 1.8 mi Calm Calm - 0.00 in Snow Light Snow
9:29 PM 26.6 °F - 24.8 °F 93% 30.03 in 0.8 mi Calm Calm - 0.00 in Snow Light Snow
9:40 PM 26.6 °F - 24.8 °F 93% 30.03 in 1.0 mi Calm Calm - 0.00 in Snow Light Snow
9:50 PM 26.6 °F - 24.8 °F 93% 30.03 in 1.8 mi Calm Calm - 0.00 in   Overcast
9:53 PM 26.1 °F - 24.1 °F 92% 30.06 in 1.8 mi Calm Calm - 0.00 in   Overcast
10:15 PM 26.6 °F 22.6 °F 24.8 °F 93% 30.02 in 1.2 mi SSE 3.5 mph - 0.00 in Snow Light Snow
10:53 PM 28.0 °F - 26.1 °F 92% 30.05 in 1.5 mi Calm Calm - 0.00 in Snow Light Snow
11:04 PM 28.4 °F 24.6 °F 26.6 °F 93% 30.01 in 2.0 mi SSE 3.5 mph - 0.00 in   Overcast
11:50 PM 28.4 °F 23.3 °F 26.6 °F 93% 29.99 in 3.0 mi SSE 4.6 mph - 0.00 in   Overcast
11:53 PM 28.9 °F 23.9 °F 27.0 °F 92% 30.02 in 3.0 mi SSE 4.6 mph - 0.00 in   Overcast